This is the latest recevied weather packets stored in our database for station/object DK4DAX-2. If no packets are shown the sender has not sent any weather packets the latest 10 day(s).
| Time | Temp. | Humidity | Pressure | Rain* | Wind** | Luminosity | Snow |
|---|---|---|---|---|---|---|---|
| 1777750201 | 20° C | 63% | 1007.2 hPa | 0 mm | - | - | - |
| 1777749301 | 20° C | 62% | 1007.1 hPa | 0 mm | - | - | - |
| 1777748401 | 20.56° C | 61% | 1007.1 hPa | 0 mm | - | - | - |
| 1777747501 | 20.56° C | 63% | 1006.9 hPa | 0 mm | - | - | - |
| 1777746601 | 21.11° C | 62% | 1007.3 hPa | 0 mm | - | - | - |
| 1777745701 | 21.67° C | 64% | 1006.8 hPa | 0 mm | - | - | - |
| 1777744801 | 21.67° C | 62% | 1006.6 hPa | 0 mm | - | - | - |
| 1777743901 | 21.67° C | 60% | 1006.7 hPa | 0 mm | - | - | - |
| 1777743001 | 22.22° C | 58% | 1007.1 hPa | 0 mm | - | - | - |
| 1777742101 | 22.22° C | 56% | 1007.4 hPa | 0 mm | - | - | - |
| 1777741202 | 22.78° C | 55% | 1007.1 hPa | 0 mm | - | - | - |
| 1777740301 | 22.78° C | 53% | 1007.1 hPa | 0 mm | - | - | - |
| 1777739401 | 22.78° C | 52% | 1007.2 hPa | 0 mm | - | - | - |
| 1777738501 | 23.33° C | 50% | 1007.5 hPa | 0 mm | - | - | - |
| 1777737601 | 23.89° C | 50% | 1007.6 hPa | 0 mm | - | - | - |
| 1777736701 | 23.89° C | 51% | 1007.9 hPa | 0 mm | - | - | - |
| 1777735801 | 24.44° C | 54% | 1008 hPa | 0 mm | - | - | - |
| 1777734901 | 23.33° C | 57% | 1008.5 hPa | 0 mm | - | - | - |
| 1777734001 | 23.89° C | 57% | 1008.3 hPa | 0 mm | - | - | - |
| 1777733101 | 23.33° C | 59% | 1008.7 hPa | 0 mm | - | - | - |
| 1777732201 | 23.33° C | 63% | 1008.8 hPa | 0 mm | - | - | - |
| 1777731301 | 22.78° C | 65% | 1009.2 hPa | 0 mm | - | - | - |
| 1777730402 | 21.67° C | 64% | 1008.9 hPa | 0 mm | - | - | - |
| 1777729501 | 22.78° C | 55% | 1009.6 hPa | 0 mm | - | - | - |
| 1777728601 | 22.78° C | 50% | 1009.7 hPa | 0.25 mm | - | - | - |
* Rain latest hour (hover to see other rain measurements)
** Current wind speed in m/s (hover to see current wind gust speed)